Regional Weather Roundup
Issued by NWS

Home | Current Version | Previous Version | Graphics & Text | Print | Product List | Glossary Off
Versions: 1 2 3 4 5 6 7 8 9 10 11 12 13 14 15 16 17 18 19 20 21 22 23 24 25 26 27 28 29 30 31 32 33 34 35 36 37 38 39 40 41 42 43 44 45 46 47 48 49 50

607
ASUS43 KTOP 272008
RWRKS

WEATHER ROUNDUP FOR KANSAS
NATIONAL WEATHER SERVICE GOODLAND KS
300 PM CDT TUE JUN 27 2017

NOTE:  "FAIR" INDICATES FEW OR NO CLOUDS BELOW 12,000 FEET WITH NO
SIGNIFICANT WEATHER AND/OR OBSTRUCTIONS TO VISIBILITY.

KSZ001>006-013>018-027>032-041>047-272100-
NORTHWEST KANSAS

CITY           SKY/WX    TMP DP  RH WIND       PRES   REMARKS
GOODLAND       SUNNY     93  49  22 S21G28    29.79F
HAYS           SUNNY     95  58  28 S25G31    29.82F
HILL CITY      SUNNY     94  56  27 S16G30    29.81F
RUSSELL        LGT RAIN  96  60  30 S21G32    29.82F HX  96
$$

KSZ061>065-074>080-084>089-272100-
SOUTHWEST KANSAS

CITY           SKY/WX    TMP DP  RH WIND       PRES   REMARKS
DODGE CITY     SUNNY     93  58  30 S26G32    29.87F
ELKHART          N/A     89  52  28 S16         N/A
GARDEN CITY    SUNNY     96  55  25 S22G36    29.86F
LIBERAL        SUNNY     93  60  33 SW16G31   29.90F
PRATT          MOSUNNY   90  63  40 S21G30    29.89F
$$

KSZ066>073-081>083-090>101-272100-
SOUTHEAST KANSAS

CITY           SKY/WX    TMP DP  RH WIND       PRES   REMARKS
CHANUTE        CLOUDY    86  62  44 S14       30.00F
COFFEYVILLE    CLOUDY    85  65  51 S12       29.99F
HUTCHINSON     MOSUNNY   93  64  38 S21G28    29.89F
MEDICINE LODGE   N/A     94  62  34 S16G28    29.88F
PARSONS        PTSUNNY   83  65  54 S9        30.01F
WICHITA INTL   MOSUNNY   90  70  51 S21G28    29.91F HX  95
WICHITA JABRA  MOSUNNY   84  73  69 SE14      29.93F
WICHITA MCCONL MOSUNNY   87  70  56 S18G24    29.93F
WINFIELD       PTSUNNY   87  71  58 SE14      29.95F
$$

KSZ007>012-019>026-033>040-048>060-102>105-272100-
NORTHEAST KANSAS

CITY           SKY/WX    TMP DP  RH WIND       PRES   REMARKS
CONCORDIA      PTSUNNY   80  68  66 SE20G26   29.90F
EMPORIA        CLOUDY    79  69  71 SE12G18   29.97F
LAWRENCE       MOSUNNY   83  67  58 SE16G22   29.99F
MANHATTAN      CLOUDY    78  67  68 SE12      29.93F
MARYSVILLE     PTSUNNY   79  66  65 S15G21    29.93F
OLATHE IND     MOSUNNY   81  65  58 SE9       30.01F
OLATHE EXE     MOSUNNY   78  66  66 SE12G20   30.01F
SALINA         PTSUNNY   91  69  48 S17G29    29.88F HX  96
TOPEKA BILLARD CLOUDY    80  67  64 S14       29.97F
TOPEKA FORBES  CLOUDY    79  67  66 S13       29.99S
$$




USA.gov is the U.S. government's official web portal to all federal, state and local government web resources and services.